Hourly Data Report for June 26, 2021

FISHER BRANCH (AUT)
MANITOBA
Current Station Operator: ECCC - MSC

51°05'00.100" N
97°33'16.200" W
253.00 m
50309J6
71442
WSZ

Download Data

Hourly Data (June 2021)
Hourly Data Report for June 26, 2021
TIME
LST
Temp Definition
°C
Dew Point Definition
°C
Rel Hum Definition
%
Precip. Amount Definition
mm

Wind Dir Definition
10's deg

Wind Spd Definition
km/h
Visibility Definition
km
Stn Press Definition
kPa
Hmdx Definition


Wind Chill Definition


Weather Definition


00:00 19.0 14.7 76 0.0 20 12   97.91     LegendNANA
01:00 18.1 14.9 82 0.0 19 7   97.87     LegendNANA
02:00 16.7 14.5 87 0.0 15 8   97.89     LegendNANA
03:00 15.1 13.7 91 0.0 16 6   97.88     LegendNANA
04:00 12.6 11.5 93 0.0 10 3   97.89     LegendNANA
05:00 13.5 12.9 96 0.0 15 1   97.89     LegendNANA
06:00 15.2 14.1 93 0.0 36 7   97.96     LegendNANA
07:00 16.5 14.4 87 0.0 3 6   98.01     LegendNANA
08:00 18.9 14.4 75 0.0 2 9   98.07     LegendNANA
09:00 20.6 12.9 61 0.0 3 13   98.13     LegendNANA
10:00 21.2 13.2 61 0.0 5 13   98.16     LegendNANA
11:00 21.6 13.0 58 0.0 4 13   98.19     LegendNANA
12:00 23.5 11.3 46 0.0 3 9   98.18 25   LegendNANA
13:00 24.6 11.8 45 0.0 33 13   98.16 27   LegendNANA
14:00 25.5 12.2 44 0.0 36 13   98.16 28   LegendNANA
15:00 26.9 11.5 38 0.0 2 9   98.13 29   LegendNANA
16:00 26.0 12.5 43 0.0 4 13   98.12 29   LegendNANA
17:00 25.7 10.2 38 0.0 36 16   98.10 27   LegendNANA
18:00 25.4 8.8 35 0.0 35 19   98.13 26   LegendNANA
19:00 23.6 7.0 34 0.0 34 15   98.19     LegendNANA
20:00 20.5 3.5 33 0.0 32 9   98.22     LegendNANA
21:00 17.3 4.9 44 0.0 30 9   98.26     LegendNANA
22:00 16.1 5.3 48 0.0 29 10   98.25     LegendNANA
23:00 15.9 6.0 52 0.0 27 7   98.24     LegendNANA

Notes on Data Quality.

Legend

  • E = Estimated
  • M = Missing
  • NA = Not Available*
  • [empty] = Indicates an unobserved value
Date modified: